This is the latest recevied weather packets stored in our database for station/object N9PBY-2. If no packets are shown the sender has not sent any weather packets the latest 10 day(s).
| Time | Temp. | Humidity | Pressure | Rain* | Wind** | Luminosity | Snow |
|---|---|---|---|---|---|---|---|
| 1778086206 | 11.67° C | 32% | 1012.7 hPa | 0 mm | - | - | - |
| 1778085606 | 12.22° C | 32% | 1012.7 hPa | 0 mm | - | - | - |
| 1778085007 | 12.78° C | 33% | 1012.8 hPa | 0 mm | - | - | - |
| 1778084407 | 12.22° C | 33% | 1012.7 hPa | 0 mm | - | - | - |
| 1778083807 | 11.67° C | 32% | 1012.8 hPa | 0 mm | - | - | - |
| 1778083206 | 12.22° C | 34% | 1012.8 hPa | 0 mm | - | - | - |
| 1778082607 | 11.67° C | 32% | 1012.9 hPa | 0 mm | - | - | - |
| 1778082007 | 11.11° C | 31% | 1012.8 hPa | 0 mm | - | - | - |
| 1778081407 | 11.11° C | 36% | 1012.7 hPa | 0 mm | - | - | - |
| 1778080807 | 10.56° C | 32% | 1012.6 hPa | 0 mm | - | - | - |
| 1778080207 | 11.67° C | 36% | 1012.7 hPa | 0 mm | - | - | - |
| 1778079606 | 10° C | 48% | 1012.8 hPa | 0 mm | - | - | - |
| 1778079006 | 10.56° C | 47% | 1012.8 hPa | 0 mm | - | - | - |
| 1778078407 | 10° C | 49% | 1012.9 hPa | 0 mm | - | - | - |
| 1778077807 | 10° C | 41% | 1012.7 hPa | 0 mm | - | - | - |
| 1778077207 | 9.44° C | 45% | 1012.6 hPa | 0 mm | - | - | - |
| 1778076606 | 8.89° C | 44% | 1012.6 hPa | 0 mm | - | - | - |
| 1778076008 | 8.89° C | 48% | 1012.7 hPa | 0 mm | - | - | - |
| 1778075406 | 8.33° C | 48% | 1012.7 hPa | 0 mm | - | - | - |
| 1778074807 | 7.78° C | 49% | 1012.7 hPa | 0 mm | - | - | - |
| 1778074207 | 7.78° C | 48% | 1012.7 hPa | 0 mm | - | - | - |
| 1778073606 | 7.78° C | 49% | 1012.7 hPa | 0 mm | - | - | - |
| 1778073007 | 7.22° C | 50% | 1012.6 hPa | 0 mm | - | - | - |
| 1778072407 | 7.22° C | 52% | 1012.4 hPa | 0 mm | - | - | - |
| 1778071806 | 6.67° C | 53% | 1012.3 hPa | 0 mm | - | - | - |
* Rain latest hour (hover to see other rain measurements)
** Current wind speed in m/s (hover to see current wind gust speed)